| time (UTC) | temp F | wind direction | speed knots | gust knots | rain 1hr in | rain 24hr in | rain mn in | humidity % | barometer mb |
| 20260507033053 | 83 | 288 | 1.7 | 6.1 | 0.00 | 0.00 | 0.00 | 74 | 1009.9 |
| 20260507031554 | 83 | 286 | 1.7 | 5.2 | 0.00 | 0.00 | 0.00 | 74 | 1009.8 |
| 20260507030047 | 83 | 250 | 1.7 | 6.1 | 0.00 | 0.00 | 0.00 | 73 | 1009.8 |
| 20260507024548 | 84 | 267 | 2.6 | 5.2 | 0.00 | 0.00 | 0.00 | 73 | 1009.7 |
| 20260507023042 | 84 | 229 | 1.7 | 4.3 | 0.00 | 0.00 | 0.00 | 73 | 1009.4 |
| 20260507021553 | 85 | 241 | 2.6 | 5.2 | 0.00 | 0.00 | 0.00 | 72 | 1009.3 |
| 20260507020034 | 84 | 227 | 2.6 | 7.8 | 0.00 | 0.00 | 0.00 | 71 | 1009.0 |
| 20260507014532 | 85 | 209 | 0.9 | 7.0 | 0.00 | 0.00 | 0.00 | 75 | 1008.8 |
| 20260507013034 | 86 | 206 | 4.3 | 7.0 | 0.00 | 0.00 | 0.00 | 75 | 1008.6 |
| 20260507011530 | 86 | 245 | 1.7 | 5.2 | 0.00 | 0.00 | 0.00 | 73 | 1008.4 |
| 20260507010029 | 87 | 198 | 1.7 | 5.2 | 0.00 | 0.00 | 0.00 | 72 | 1008.3 |
| 20260507004520 | 87 | 213 | 4.3 | 8.7 | 0.00 | 0.00 | 0.00 | 71 | 1008.1 |
| 20260507003015 | 88 | 200 | 6.1 | 9.6 | 0.00 | 0.00 | 0.00 | 68 | 1007.9 |
| 20260507001515 | 88 | 219 | 6.1 | 9.6 | 0.00 | 0.00 | 0.00 | 67 | 1007.8 |
| 20260507000012 | 89 | 222 | 7.0 | 15.6 | 0.00 | 0.00 | 0.00 | 66 | 1007.8 |
| 20260506234512 | 89 | 206 | 6.1 | 18.2 | 0.00 | 0.00 | 0.00 | 64 | 1007.7 |
| 20260506233009 | 90 | 248 | 8.7 | 17.4 | 0.00 | 0.00 | 0.00 | 63 | 1007.6 |
| 20260506231509 | 90 | 231 | 10.4 | 20.0 | 0.00 | 0.00 | 0.00 | 61 | 1007.6 |
| 20260506230006 | 91 | 190 | 8.7 | 20.0 | 0.00 | 0.00 | 0.00 | 59 | 1007.5 |
| 20260506224506 | 91 | 197 | 11.3 | 21.7 | 0.00 | 0.00 | 0.00 | 58 | 1007.4 |
| 20260506223007 | 91 | 189 | 12.2 | 22.6 | 0.00 | 0.00 | 0.00 | 57 | 1007.2 |
| 20260506221505 | 92 | 163 | 14.8 | 24.3 | 0.00 | 0.00 | 0.00 | 55 | 1007.1 |
| 20260506220036 | 92 | 194 | 13.9 | 22.6 | 0.00 | 0.00 | 0.00 | 53 | 1007.0 |
| 20260506214533 | 93 | 166 | 13.9 | 23.5 | 0.00 | 0.00 | 0.00 | 52 | 1007.1 |
| 20260506213032 | 93 | 188 | 14.8 | 21.7 | 0.00 | 0.00 | 0.00 | 52 | 1007.0 |
| 20260506211530 | 94 | 183 | 12.2 | 21.7 | 0.00 | 0.00 | 0.00 | 51 | 1007.1 |
| 20260506210034 | 94 | 186 | 14.8 | 22.6 | 0.00 | 0.00 | 0.00 | 46 | 1007.1 |
| 20260506204545 | 95 | 236 | 11.3 | 19.1 | 0.00 | 0.00 | 0.00 | 43 | 1007.4 |
| 20260506203030 | 95 | 360 | 14.8 | 26.9 | 0.00 | 0.00 | 0.00 | 44 | 1007.3 |
| 20260506201529 | 95 | 166 | 13.9 | 25.2 | 0.00 | 0.00 | 0.00 | 44 | 1007.5 |
| 20260506200025 | 96 | 360 | 11.3 | 21.7 | 0.00 | 0.00 | 0.00 | 45 | 1007.7 |
| 20260506200023 | 96 | 169 | 11.3 | 21.7 | 0.00 | 0.00 | 0.00 | 45 | 1007.7 |
| 20260506194522 | 95 | 360 | 8.7 | 19.1 | 0.00 | 0.00 | 0.00 | 46 | 1007.7 |
| 20260506193020 | 95 | 234 | 10.4 | 24.3 | 0.00 | 0.00 | 0.00 | 47 | 1007.8 |
| 20260506191518 | 95 | 226 | 9.6 | 20.9 | 0.00 | 0.00 | 0.00 | 45 | 1008.0 |
| 20260506190017 | 95 | 180 | 12.2 | 22.6 | 0.00 | 0.00 | 0.00 | 48 | 1007.9 |
| 20260506184516 | 95 | 203 | 13.0 | 23.5 | 0.00 | 0.00 | 0.00 | 47 | 1008.0 |
| 20260506183016 | 96 | 176 | 12.2 | 21.7 | 0.00 | 0.00 | 0.00 | 47 | 1008.2 |
| 20260506181519 | 96 | 155 | 8.7 | 20.9 | 0.00 | 0.00 | 0.00 | 46 | 1008.4 |
| 20260506180015 | 96 | 190 | 9.6 | 21.7 | 0.00 | 0.00 | 0.00 | 46 | 1008.5 |
| 20260506174509 | 96 | 240 | 11.3 | 19.1 | 0.00 | 0.00 | 0.00 | 46 | 1008.7 |
| 20260506173007 | 95 | 182 | 9.6 | 19.1 | 0.00 | 0.00 | 0.00 | 51 | 1008.7 |
| 20260506171510 | 95 | 180 | 10.4 | 18.2 | 0.00 | 0.00 | 0.00 | 53 | 1008.8 |
| 20260506170003 | 95 | 172 | 10.4 | 17.4 | 0.00 | 0.00 | 0.00 | 54 | 1008.9 |
| 20260506164501 | 95 | 167 | 8.7 | 16.5 | 0.00 | 0.00 | 0.00 | 56 | 1009.1 |
| 20260506163101 | 94 | 144 | 7.8 | 13.9 | 0.00 | 0.00 | 0.00 | 58 | 1009.2 |
| 20260506161604 | 94 | 114 | 1.7 | 12.2 | 0.00 | 0.00 | 0.00 | 58 | 1009.3 |
| 20260506160057 | 94 | 228 | 5.2 | 11.3 | 0.00 | 0.00 | 0.00 | 50 | 1009.4 |
| 20260506154550 | 93 | 203 | 8.7 | 13.0 | 0.00 | 0.00 | 0.00 | 51 | 1009.4 |
| 20260506153046 | 91 | 188 | 6.1 | 11.3 | 0.00 | 0.00 | 0.00 | 55 | 1009.5 |
| 20260506151558 | 90 | 252 | 0.9 | 4.3 | 0.00 | 0.00 | 0.00 | 62 | 1009.6 |
| 20260506150036 | 89 | 262 | 3.5 | 7.8 | 0.00 | 0.00 | 0.00 | 65 | 1009.6 |
| 20260506144533 | 88 | 309 | 3.5 | 8.7 | 0.00 | 0.00 | 0.00 | 66 | 1009.7 |
| 20260506143042 | 87 | 306 | 0.0 | 3.5 | 0.00 | 0.00 | 0.00 | 71 | 1009.7 |
| 20260506141524 | 85 | 305 | 0.0 | 3.5 | 0.00 | 0.00 | 0.00 | 75 | 1009.8 |
| 20260506140032 | 83 | 306 | 0.0 | 0.9 | 0.00 | 0.00 | 0.00 | 79 | 1009.8 |
| 20260506134523 | 81 | 224 | 0.9 | 2.6 | 0.00 | 0.00 | 0.00 | 81 | 1009.8 |
| 20260506133024 | 80 | 224 | 0.9 | 3.5 | 0.00 | 0.00 | 0.00 | 83 | 1009.8 |
| 20260506131525 | 78 | 303 | 0.9 | 1.7 | 0.00 | 0.00 | 0.00 | 85 | 1009.6 |
| 20260506130018 | 77 | 302 | 0.9 | 6.1 | 0.00 | 0.00 | 0.00 | 86 | 1009.5 |
| 20260506124517 | 76 | 300 | 1.7 | 4.3 | 0.00 | 0.00 | 0.00 | 88 | 1009.3 |
| 20260506123017 | 76 | 296 | 0.0 | 0.0 | 0.00 | 0.00 | 0.00 | 88 | 1009.2 |
| 20260506121514 | 76 | 290 | 0.0 | 3.5 | 0.00 | 0.00 | 0.00 | 88 | 1009.2 |
| 20260506120014 | 76 | 325 | 0.0 | 0.0 | 0.00 | 0.00 | 0.00 | 87 | 1009.1 |
| 20260506114516 | 77 | 328 | 0.0 | 0.0 | 0.00 | 0.00 | 0.00 | 87 | 1009.0 |
| 20260506113013 | 77 | 328 | 0.0 | 0.0 | 0.00 | 0.00 | 0.00 | 87 | 1008.9 |
| 20260506111541 | 77 | 13 | 0.0 | 0.0 | 0.00 | 0.00 | 0.00 | 88 | 1008.7 |
| 20260506110048 | 77 | 13 | 0.0 | 0.0 | 0.00 | 0.00 | 0.00 | 88 | 1008.6 |
| 20260506104536 | 77 | 13 | 0.0 | 0.0 | 0.00 | 0.00 | 0.00 | 88 | 1008.4 |
| 20260506103035 | 78 | 159 | 0.0 | 0.0 | 0.00 | 0.00 | 0.00 | 87 | 1008.3 |
| 20260506101548 | 78 | 159 | 0.0 | 0.0 | 0.00 | 0.00 | 0.00 | 87 | 1008.2 |
| 20260506100032 | 78 | 159 | 0.0 | 0.0 | 0.00 | 0.00 | 0.00 | 87 | 1008.1 |
| 20260506094529 | 78 | 159 | 0.0 | 3.5 | 0.00 | 0.00 | 0.00 | 86 | 1008.1 |
| 20260506093027 | 79 | 346 | 0.0 | 0.0 | 0.00 | 0.00 | 0.00 | 85 | 1008.1 |
| 20260506091528 | 79 | 346 | 0.0 | 3.5 | 0.00 | 0.00 | 0.00 | 85 | 1008.1 |
| 20260506090025 | 79 | 326 | 1.7 | 2.6 | 0.00 | 0.00 | 0.00 | 85 | 1008.1 |
| 20260506084554 | 79 | 328 | 1.7 | 4.3 | 0.00 | 0.00 | 0.00 | 84 | 1008.2 |
| 20260506083053 | 79 | 327 | 0.0 | 0.0 | 0.00 | 0.00 | 0.00 | 83 | 1008.3 |
| 20260506081548 | 80 | 26 | 0.9 | 4.3 | 0.00 | 0.00 | 0.00 | 83 | 1008.6 |
| 20260506073046 | 81 | 173 | 0.0 | 1.7 | 0.00 | 0.00 | 0.00 | 83 | 1008.7 |
| 20260506071557 | 81 | 230 | 0.0 | 1.7 | 0.00 | 0.00 | 0.00 | 82 | 1008.9 |
| 20260506061537 | 82 | 292 | 1.7 | 5.2 | 0.00 | 0.00 | 0.00 | 81 | 1009.4 |
| 20260506044525 | 83 | 254 | 1.7 | 5.2 | 0.00 | 0.00 | 0.00 | 80 | 1009.6 |
| 20260506043021 | 83 | 257 | 1.7 | 5.2 | 0.00 | 0.00 | 0.00 | 80 | 1009.4 |
| 20260506041527 | 83 | 286 | 0.9 | 6.1 | 0.00 | 0.00 | 0.00 | 80 | 1009.3 |
| 20260506040046 | 84 | 265 | 0.0 | 6.1 | 0.00 | 0.00 | 0.00 | 79 | 1009.3 |
| 20260506034546 | 84 | 250 | 2.6 | 6.1 | 0.00 | 0.00 | 0.00 | 79 | 1009.2 |